Regional Weather Roundup
Issued by NWS

Home | Current Version | Previous Version | Text Only | Print | Product List | Glossary Off
Versions: 1 2 3 4 5 6 7 8 9 10 11 12 13 14 15 16 17 18 19 20 21 22 23 24 25 26 27 28 29 30 31 32 33 34 35 36 37 38 39 40 41 42 43 44 45 46 47 48 49 50

000
ASUS43 KLOT 231004
RWRIL

ILLINOIS REGIONAL WEATHER ROUNDUP
NATIONAL WEATHER SERVICE CHICAGO/ROMEOVILLE IL
500 AM CDT TUE MAY 23 2017

NOTE: "FAIR" INDICATES FEW OR NO CLOUDS BELOW 12,000 FEET WITH NO
SIGNIFICANT WEATHER AND/OR OBSTRUCTIONS TO VISIBILITY.

* THESE STATIONS ARE NOT UNDER NWS QUALITY CONTROL. THEY ALSO MAY NOT
  REPORT WEATHER SUCH AS PRECIPITATION OR FOG.

ILZ001-002-007-009-015-016-024-231100-
NORTHWEST ILLINOIS

CITY           SKY/WX    TMP DP  RH WIND       PRES   REMARKS
MOLINE         CLOUDY    56  51  84 SW8       29.80S
STERLING*      CLOUDY    55  52  89 VRB5      29.81S
$$

ILZ003-004-008-010-011-017-018-231100-
NORTH CENTRAL ILLINOIS

CITY           SKY/WX    TMP DP  RH WIND       PRES   REMARKS
ROCKFORD       CLOUDY    57  53  86 SW6       29.81S
FREEPORT*      CLOUDY    54  51  92 SW9       29.80F
ROCHELLE*      PTCLDY    53  52  97 S7        29.81S
DE KALB*       CLOUDY    54  53  97 S6        29.82S
$$

ILZ005-006-012>014-019>023-231100-
NORTHEAST ILLINOIS

CITY           SKY/WX    TMP DP  RH WIND       PRES   REMARKS
CHICAGO-OHARE  CLOUDY    59  52  77 SW9       29.81F
CHICAGO-MIDWAY CLOUDY    60  54  80 SW10      29.82F
AURORA         CLOUDY    58  54  86 S7        29.82F
LANSING*       CLOUDY    58  54  85 SW8       29.84S
WAUKEGAN       CLOUDY    56  54  93 SW6       29.80S
DUPAGE AIRPORT MOCLDY    56  54  93 S7        29.80F
WHEELING       MOCLDY    58  55  90 S7        29.82F
MORRIS*        CLOUDY    57  53  86 CALM      29.82S
ROMEOVILLE*    CLOUDY    57  55  93 SW9       29.83S
NORTHERLY ISL    N/A     60  51  72 S9          N/A
$$

LMZ740>746-231100-
SOUTHERN LAKE MICHIGAN

STATION/POSITION SKY/WX   TEMP    WIND        PRES    VSBY  WAVE
                          AIR SEA DIR/SP/G                  HT/PER
                          (F)     (DEG/KT/KT) (MB)    (MI)  (FT/S)
SOUTHERN BUOY              48 45  180/ 10/ 10 1009.9          1/ 4
WILMETTE HARBOR            57 54                N/A           1/ 2
HARRISON CRIB              61     210/ 19/ 21   N/A
BURNHAM HARBOR             60     180/ 11/ 13   N/A
CALUMET HARBOR             61     200/  8/ 11 1009.7F
BURNS HARBOR               60     200/ 11/ 15 1010.8F
MICHIGAN CITY              60     170/  9/ 11   N/A
MICHIGAN CITY 6N           56 53  210/  6/  8   N/A           1/ 3
ST. JOSEPH                 57 55  210/  4/  6 1010.7F         2/ 3
$$

ILZ025>027-034>036-040-047-049-050-058-095>099-231100-
WEST-CENTRAL ILLINOIS

CITY           SKY/WX    TMP DP  RH WIND       PRES   REMARKS
QUINCY         LGT RAIN  56  55  97 S5        29.84F
GALESBURG*     LGT RAIN  55  54  94 S8        29.82S
MACOMB*        LGT RAIN  55  55  97 S8        29.85F
$$

ILZ028>032-037-038-041>044-048-051>054-059>061-231100-
CENTRAL ILLINOIS

CITY           SKY/WX    TMP DP  RH WIND       PRES   REMARKS
BLOOMINGTON    LGT RAIN  56  54  93 SW7       29.86S
DECATUR        CLOUDY    57  55  93 SE3       29.86S
PEORIA         LGT RAIN  57  56  96 SW8       29.85S
LACON*         LGT RAIN  56  55  95 SW5       29.83S
LINCOLN*       CLOUDY    58  58 100 CALM      29.86R
SPRINGFIELD    CLOUDY    58  58 100 CALM      29.86S
TAYLORVILLE    NOT AVBL
$$

ILZ033-039-045-046-055>057-062-063-231100-
EAST-CENTRAL ILLINOIS

CITY           SKY/WX    TMP DP  RH WIND       PRES   REMARKS
CHAMPAIGN      CLOUDY    58  55  90 E5        29.86F
MATTOON        CLOUDY    59  56  89 N6        29.85F
$$

ILZ079-100>102-231100-
SOUTHWEST ILLINOIS

CITY           SKY/WX    TMP DP  RH WIND       PRES   REMARKS
BELLEVILLE     CLOUDY    59  56  89 N5        29.84F
CAHOKIA*       CLOUDY    61  55  81 CALM      29.83F
SPARTA*        CLOUDY    60  53  76 CALM      29.84F
$$

ILZ064>066-069>071-074>076-080>082-084>086-088>090-092>094-231100-
SOUTH-CENTRAL ILLINOIS

CITY           SKY/WX    TMP DP  RH WIND       PRES   REMARKS
CARBONDALE     CLOUDY    58  57  97 CALM      29.84F
CAIRO*         PTCLDY    58  55  91 NE3       29.84F
EFFINGHAM*     CLOUDY    59  56  91 CALM      29.87S
MARION         CLOUDY    59  57  94 CALM      29.85F
MT. VERNON       N/A     56  54  93 NE3       29.85F
CENTRALIA*     MOCLDY    61  55  82 CALM      29.84F
SALEM*         CLOUDY    62  52  68 SE3       29.85S
$$

ILZ067-068-072-073-078-083-087-091-231100-
SOUTHEAST ILLINOIS

CITY           SKY/WX    TMP DP  RH WIND       PRES   REMARKS
LAWRENCEVILLE  CLOUDY    59  52  77 SE7       29.85F
FLORA*         CLOUDY    61  56  84 CALM      29.86S
FAIRFIELD*     CLOUDY    59  55  85 CALM      29.84S
HARRISBURG*    CLOUDY    57  55  93 CALM      29.85F
ROBINSON*      CLOUDY    58  54  85 CALM      29.86F
CARMI*         CLOUDY    59  55  87 CALM      29.85S
$$

ABBREVIATIONS USED IN REMARKS
   TC - TEMPERATURE IN CELSIUS
  WCI - WIND CHILL INDEX
   HX - HEAT INDEX
  VSB - VISIBILITY
$$





USA.gov is the U.S. government's official web portal to all federal, state and local government web resources and services.